| time (UTC) | temp F | wind direction | speed MPH | gust MPH | rain 1hr in | rain 24hr in | rain mn in | humidity % | barometer mb |
| 20260906113514 | 60 | 9 | 0.0 | 5.0 | 0.00 | 0.01 | 0.00 | 92 | 1016.5 |
| 20260906113009 | 60 | 298 | 2.0 | 5.0 | 0.00 | 0.02 | 0.00 | 92 | 1016.5 |
| 20260906112506 | 60 | 331 | 1.0 | 4.0 | 0.00 | 0.03 | 0.00 | 92 | 1016.5 |
| 20260906112006 | 60 | 9 | 1.0 | 3.0 | 0.00 | 0.04 | 0.00 | 92 | 1016.5 |
| 20260906111523 | 60 | 5 | 1.0 | 3.0 | 0.00 | 0.06 | 0.00 | 92 | 1016.4 |
| 20260906111008 | 60 | 351 | 1.0 | 4.0 | 0.00 | 0.07 | 0.00 | 92 | 1016.3 |
| 20260906110510 | 60 | 340 | 1.0 | 4.0 | 0.00 | 0.08 | 0.00 | 92 | 1016.4 |
| 20260906110018 | 60 | 331 | 1.0 | 2.0 | 0.00 | 0.09 | 0.00 | 92 | 1016.4 |
| 20260906105510 | 60 | 341 | 0.0 | 4.0 | 0.00 | 0.11 | 0.00 | 91 | 1016.4 |
| 20260906105011 | 60 | 350 | 1.0 | 5.0 | 0.00 | 0.12 | 0.00 | 91 | 1016.5 |
| 20260906104528 | 60 | 327 | 2.0 | 5.0 | 0.00 | 0.14 | 0.00 | 91 | 1016.5 |
| 20260906104014 | 60 | 38 | 2.0 | 4.0 | 0.00 | 0.15 | 0.00 | 91 | 1016.5 |
| 20260906103518 | 60 | 323 | 1.0 | 6.0 | 0.00 | 0.17 | 0.00 | 91 | 1016.5 |
| 20260906103033 | 60 | 352 | 1.0 | 6.0 | 0.00 | 0.19 | 0.00 | 90 | 1016.4 |
| 20260906102514 | 61 | 292 | 2.0 | 7.0 | 0.00 | 0.21 | 0.00 | 90 | 1016.5 |
| 20260906102018 | 61 | 342 | 2.0 | 7.0 | 0.00 | 0.22 | 0.00 | 90 | 1016.4 |
| 20260906101513 | 61 | 27 | 2.0 | 6.0 | 0.00 | 0.23 | 0.00 | 89 | 1016.5 |
| 20260906101013 | 61 | 352 | 1.0 | 4.0 | 0.00 | 0.24 | 0.00 | 89 | 1016.5 |
| 20260906100511 | 61 | 263 | 2.0 | 4.0 | 0.00 | 0.25 | 0.00 | 89 | 1016.4 |
| 20260906100018 | 61 | 348 | 1.0 | 5.0 | 0.00 | 0.25 | 0.00 | 88 | 1016.4 |
| 20260906095515 | 61 | 9 | 2.0 | 5.0 | 0.00 | 0.26 | 0.00 | 88 | 1016.4 |
| 20260906095012 | 61 | 304 | 1.0 | 5.0 | 0.00 | 0.28 | 0.00 | 87 | 1016.3 |
| 20260906094526 | 61 | 246 | 2.0 | 6.0 | 0.00 | 0.29 | 0.00 | 87 | 1016.3 |
| 20260906094015 | 61 | 302 | 2.0 | 7.0 | 0.00 | 0.30 | 0.00 | 87 | 1016.3 |
| 20260906093514 | 61 | 317 | 2.0 | 7.0 | 0.00 | 0.31 | 0.00 | 87 | 1016.3 |
| 20260906093029 | 61 | 313 | 2.0 | 5.0 | 0.00 | 0.33 | 0.00 | 87 | 1016.2 |
| 20260906092516 | 61 | 350 | 1.0 | 5.0 | 0.00 | 0.34 | 0.00 | 87 | 1016.2 |
| 20260906092017 | 61 | 13 | 1.0 | 3.0 | 0.00 | 0.34 | 0.00 | 87 | 1016.1 |
| 20260906091535 | 62 | 343 | 0.0 | 3.0 | 0.00 | 0.35 | 0.00 | 87 | 1016.0 |
| 20260906091016 | 62 | 28 | 0.0 | 3.0 | 0.00 | 0.36 | 0.00 | 86 | 1016.1 |
| 20260906090506 | 62 | 41 | 1.0 | 3.0 | 0.00 | 0.39 | 0.00 | 86 | 1016.0 |
| 20260906090021 | 62 | 41 | 0.0 | 2.0 | 0.00 | 0.47 | 0.00 | 85 | 1015.9 |
| 20260906085509 | 62 | 42 | 0.0 | 3.0 | 0.00 | 0.66 | 0.00 | 85 | 1015.9 |
| 20260906085011 | 63 | 336 | 1.0 | 3.0 | 0.00 | 0.77 | 0.00 | 84 | 1016.0 |
| 20260906084532 | 63 | 257 | 0.0 | 3.0 | 0.00 | 0.77 | 0.00 | 83 | 1016.0 |
| 20260906084012 | 64 | 360 | 1.0 | 4.0 | 0.00 | 0.78 | 0.00 | 83 | 1016.1 |
| 20260906083512 | 64 | 297 | 1.0 | 4.0 | 0.00 | 0.80 | 0.00 | 82 | 1016.1 |
| 20260906083027 | 64 | 16 | 0.0 | 3.0 | 0.00 | 0.80 | 0.00 | 82 | 1016.0 |
| 20260906082514 | 64 | 306 | 2.0 | 8.0 | 0.00 | 0.80 | 0.00 | 81 | 1016.0 |
| 20260906082016 | 65 | 342 | 1.0 | 8.0 | 0.00 | 0.80 | 0.00 | 81 | 1016.0 |
| 20260906081539 | 65 | 334 | 2.0 | 4.0 | 0.00 | 0.81 | 0.00 | 81 | 1015.9 |
| 20260906081017 | 65 | 333 | 0.0 | 3.0 | 0.00 | 0.82 | 0.00 | 81 | 1015.8 |
| 20260906080519 | 65 | 346 | 1.0 | 5.0 | 0.00 | 0.83 | 0.00 | 81 | 1015.7 |
| 20260906080035 | 65 | 305 | 1.0 | 5.0 | 0.00 | 0.87 | 0.00 | 81 | 1015.9 |
| 20260906075518 | 65 | 352 | 0.0 | 4.0 | 0.00 | 0.99 | 0.00 | 81 | 1015.9 |
| 20260906075013 | 65 | 342 | 1.0 | 3.0 | 0.00 | 1.16 | 0.00 | 81 | 1016.0 |
| 20260906074520 | 65 | 351 | 1.0 | 3.0 | 0.00 | 1.20 | 0.00 | 81 | 1016.0 |
| 20260906074016 | 65 | 297 | 1.0 | 4.0 | 0.00 | 1.23 | 0.00 | 82 | 1015.9 |
| 20260906073514 | 65 | 352 | 2.0 | 4.0 | 0.00 | 1.24 | 0.00 | 81 | 1015.9 |
| 20260906073028 | 65 | 320 | 1.0 | 3.0 | 0.00 | 1.25 | 0.00 | 81 | 1015.9 |
| 20260906072516 | 66 | 340 | 1.0 | 3.0 | 0.00 | 1.26 | 0.00 | 81 | 1015.8 |
| 20260906072017 | 66 | 338 | 0.0 | 3.0 | 0.00 | 1.27 | 0.00 | 81 | 1015.7 |
| 20260906071533 | 66 | 304 | 0.0 | 4.0 | 0.00 | 1.29 | 0.00 | 80 | 1015.7 |
| 20260906071014 | 66 | 25 | 1.0 | 4.0 | 0.00 | 1.37 | 0.00 | 80 | 1015.4 |
| 20260906070514 | 66 | 352 | 1.0 | 4.0 | 0.00 | 1.46 | 0.00 | 80 | 1015.4 |
| 20260906070031 | 66 | 36 | 2.0 | 5.0 | 0.00 | 1.59 | 0.00 | 80 | 1015.6 |
| 20260906065519 | 66 | 343 | 2.0 | 5.0 | 0.00 | 1.67 | 0.00 | 79 | 1015.6 |
| 20260906065017 | 66 | 13 | 2.0 | 5.0 | 0.00 | 1.71 | 0.00 | 79 | 1015.5 |
| 20260906064531 | 66 | 336 | 2.0 | 5.0 | 0.00 | 1.71 | 0.00 | 79 | 1015.6 |
| 20260906064011 | 67 | 19 | 1.0 | 6.0 | 0.00 | 1.71 | 0.00 | 79 | 1015.6 |
| 20260906063506 | 67 | 19 | 2.0 | 6.0 | 0.00 | 1.71 | 0.00 | 79 | 1015.7 |
| 20260906063015 | 67 | 342 | 2.0 | 6.0 | 0.00 | 1.71 | 0.00 | 79 | 1015.7 |
| 20260906062500 | 67 | 24 | 2.0 | 6.0 | 0.00 | 1.71 | 0.00 | 79 | 1015.6 |
| 20260906062000 | 67 | 350 | 1.0 | 6.0 | 0.00 | 1.71 | 0.00 | 79 | 1015.5 |
| 20260906061505 | 67 | 340 | 2.0 | 6.0 | 0.00 | 1.71 | 0.00 | 79 | 1015.7 |
| 20260906061003 | 67 | 344 | 2.0 | 6.0 | 0.00 | 1.71 | 0.00 | 79 | 1015.8 |
| 20260906060504 | 67 | 13 | 1.0 | 5.0 | 0.00 | 1.71 | 0.00 | 79 | 1015.5 |
| 20260906060010 | 67 | 349 | 2.0 | 6.0 | 0.00 | 1.71 | 0.00 | 79 | 1015.6 |
| 20260906055503 | 67 | 46 | 2.0 | 6.0 | 0.00 | 1.71 | 0.00 | 79 | 1015.5 |
| 20260906055009 | 67 | 360 | 2.0 | 6.0 | 0.00 | 1.71 | 0.00 | 80 | 1015.5 |
| 20260906054517 | 67 | 331 | 3.0 | 6.0 | 0.00 | 1.71 | 0.00 | 79 | 1015.5 |
| 20260906054008 | 67 | 349 | 2.0 | 6.0 | 0.00 | 1.71 | 0.00 | 80 | 1015.5 |
| 20260906053513 | 67 | 352 | 2.0 | 5.0 | 0.00 | 1.71 | 0.00 | 81 | 1015.4 |
| 20260906053018 | 67 | 328 | 1.0 | 5.0 | 0.00 | 1.71 | 0.00 | 81 | 1015.2 |
| 20260906052513 | 67 | 11 | 2.0 | 4.0 | 0.00 | 1.71 | 0.00 | 82 | 1015.2 |
| 20260906052008 | 67 | 347 | 1.0 | 4.0 | 0.00 | 1.71 | 0.00 | 83 | 1015.3 |
| 20260906051519 | 67 | 305 | 0.0 | 4.0 | 0.00 | 1.71 | 0.00 | 83 | 1015.4 |
| 20260906051004 | 67 | 260 | 2.0 | 5.0 | 0.00 | 1.71 | 0.00 | 84 | 1015.3 |
| 20260906050503 | 67 | 344 | 1.0 | 5.0 | 0.00 | 1.71 | 0.00 | 83 | 1015.2 |
| 20260906050015 | 66 | 60 | 2.0 | 5.0 | 0.00 | 1.71 | 0.00 | 83 | 1015.0 |
| 20260906045509 | 66 | 329 | 2.0 | 4.0 | 0.00 | 1.71 | 0.00 | 84 | 1015.0 |
| 20260906045008 | 66 | 315 | 1.0 | 6.0 | 0.00 | 1.71 | 0.00 | 84 | 1015.1 |
| 20260906044513 | 66 | 360 | 3.0 | 6.0 | 0.00 | 1.71 | 0.00 | 84 | 1015.1 |
| 20260906044011 | 66 | 350 | 1.0 | 4.0 | 0.00 | 1.71 | 0.00 | 84 | 1014.9 |
| 20260906043511 | 67 | 351 | 1.0 | 4.0 | 0.00 | 1.71 | 0.00 | 84 | 1014.7 |
| 20260906043023 | 67 | 342 | 2.0 | 4.0 | 0.00 | 1.71 | 0.00 | 84 | 1014.8 |
| 20260906042508 | 67 | 345 | 2.0 | 4.0 | 0.00 | 1.71 | 0.00 | 84 | 1014.8 |
| 20260906042010 | 67 | 352 | 1.0 | 4.0 | 0.00 | 1.71 | 0.00 | 85 | 1014.8 |
| 20260906041528 | 67 | 345 | 1.0 | 4.0 | 0.00 | 1.71 | 0.00 | 84 | 1014.7 |
| 20260906041016 | 67 | 345 | 0.0 | 4.0 | 0.00 | 1.71 | 0.00 | 84 | 1014.9 |
| 20260906040510 | 68 | 11 | 1.0 | 5.0 | 0.00 | 1.71 | 0.00 | 84 | 1015.0 |
| 20260906040021 | 68 | 23 | 1.0 | 5.0 | 0.00 | 1.71 | 0.00 | 84 | 1015.0 |
| 20260906035504 | 68 | 344 | 1.0 | 8.0 | 0.00 | 1.71 | 1.71 | 84 | 1015.0 |
| 20260906035004 | 68 | 336 | 2.0 | 8.0 | 0.00 | 1.71 | 1.71 | 83 | 1015.1 |
| 20260906034508 | 68 | 334 | 3.0 | 4.0 | 0.00 | 1.71 | 1.71 | 83 | 1015.1 |
| 20260906034005 | 68 | 12 | 1.0 | 4.0 | 0.00 | 1.71 | 1.71 | 84 | 1015.1 |
| 20260906033508 | 68 | 352 | 2.0 | 4.0 | 0.00 | 1.71 | 1.71 | 84 | 1015.1 |
| 20260906033018 | 68 | 11 | 2.0 | 4.0 | 0.00 | 1.71 | 1.71 | 84 | 1015.2 |
| 20260906032507 | 68 | 332 | 1.0 | 5.0 | 0.00 | 1.71 | 1.71 | 84 | 1015.1 |
| 20260906032021 | 69 | 14 | 3.0 | 5.0 | 0.00 | 1.71 | 1.71 | 83 | 1015.0 |
| 20260906031548 | 69 | 342 | 1.0 | 6.0 | 0.00 | 1.71 | 1.71 | 83 | 1015.0 |
| 20260906031008 | 69 | 350 | 2.0 | 6.0 | 0.00 | 1.71 | 1.71 | 83 | 1015.0 |
| 20260906030512 | 69 | 18 | 1.0 | 6.0 | 0.00 | 1.71 | 1.71 | 84 | 1015.0 |
| 20260906030024 | 69 | 329 | 2.0 | 8.0 | 0.00 | 1.71 | 1.71 | 84 | 1015.0 |
| 20260906025514 | 69 | 344 | 2.0 | 9.0 | 0.00 | 1.71 | 1.71 | 84 | 1015.0 |
| 20260906025004 | 70 | 337 | 4.0 | 9.0 | 0.00 | 1.71 | 1.71 | 84 | 1014.8 |
| 20260906024508 | 70 | 336 | 2.0 | 10.0 | 0.00 | 1.71 | 1.71 | 84 | 1014.9 |
| 20260906024004 | 70 | 360 | 4.0 | 9.0 | 0.00 | 1.71 | 1.71 | 84 | 1015.0 |
| 20260906023506 | 70 | 278 | 2.0 | 8.0 | 0.00 | 1.71 | 1.71 | 85 | 1015.0 |
| 20260906023012 | 70 | 327 | 1.0 | 9.0 | 0.00 | 1.71 | 1.71 | 86 | 1015.0 |
| 20260906022509 | 70 | 344 | 3.0 | 9.0 | 0.00 | 1.71 | 1.71 | 86 | 1014.9 |
| 20260906022007 | 71 | 340 | 2.0 | 9.0 | 0.00 | 1.71 | 1.71 | 86 | 1014.8 |
| 20260906021523 | 71 | 338 | 2.0 | 11.0 | 0.00 | 1.71 | 1.71 | 86 | 1014.7 |
| 20260906021010 | 71 | 325 | 3.0 | 11.0 | 0.00 | 1.71 | 1.71 | 86 | 1014.7 |
| 20260906020513 | 71 | 11 | 3.0 | 8.0 | 0.00 | 1.71 | 1.71 | 86 | 1014.6 |
| 20260906020030 | 71 | 34 | 3.0 | 9.0 | 0.00 | 1.71 | 1.71 | 86 | 1014.6 |
| 20260906015510 | 71 | 312 | 3.0 | 9.0 | 0.00 | 1.71 | 1.71 | 86 | 1014.6 |
| 20260906015014 | 72 | 311 | 3.0 | 7.0 | 0.00 | 1.71 | 1.71 | 87 | 1014.6 |
| 20260906014527 | 72 | 349 | 1.0 | 6.0 | 0.00 | 1.71 | 1.71 | 87 | 1014.5 |
| 20260906014016 | 72 | 18 | 2.0 | 6.0 | 0.00 | 1.71 | 1.71 | 88 | 1014.5 |
| 20260906013504 | 72 | 346 | 3.0 | 10.0 | 0.00 | 1.71 | 1.71 | 88 | 1014.4 |
| 20260906013010 | 72 | 343 | 2.0 | 10.0 | 0.00 | 1.71 | 1.71 | 88 | 1014.4 |
| 20260906012505 | 73 | 352 | 1.0 | 8.0 | 0.00 | 1.71 | 1.71 | 89 | 1014.4 |
| 20260906012010 | 73 | 302 | 1.0 | 8.0 | 0.00 | 1.71 | 1.71 | 89 | 1014.3 |
| 20260906011523 | 73 | 65 | 2.0 | 9.0 | 0.00 | 1.71 | 1.71 | 89 | 1014.1 |
| 20260906011012 | 73 | 321 | 3.0 | 9.0 | 0.00 | 1.71 | 1.71 | 89 | 1014.1 |
| 20260906010510 | 73 | 321 | 1.0 | 8.0 | 0.00 | 1.71 | 1.71 | 89 | 1014.0 |
| 20260906010026 | 73 | 352 | 3.0 | 8.0 | 0.00 | 1.71 | 1.71 | 89 | 1014.0 |
| 20260906005512 | 73 | 329 | 2.0 | 5.0 | 0.00 | 1.71 | 1.71 | 89 | 1013.8 |
| 20260906005013 | 74 | 360 | 2.0 | 5.0 | 0.00 | 1.71 | 1.71 | 89 | 1013.9 |
| 20260906004530 | 74 | 70 | 1.0 | 5.0 | 0.00 | 1.71 | 1.71 | 89 | 1013.9 |
| 20260906004014 | 74 | 340 | 2.0 | 7.0 | 0.00 | 1.71 | 1.71 | 88 | 1013.7 |
| 20260906003515 | 74 | 348 | 1.0 | 7.0 | 0.00 | 1.71 | 1.71 | 88 | 1013.6 |
| 20260906003031 | 75 | 341 | 1.0 | 7.0 | 0.00 | 1.71 | 1.71 | 88 | 1013.6 |
| 20260906002508 | 75 | 360 | 3.0 | 6.0 | 0.00 | 1.71 | 1.71 | 87 | 1013.8 |
| 20260906002008 | 75 | 342 | 1.0 | 6.0 | 0.00 | 1.71 | 1.71 | 87 | 1013.8 |
| 20260906001518 | 75 | 360 | 1.0 | 7.0 | 0.00 | 1.71 | 1.71 | 86 | 1013.9 |
| 20260906001013 | 75 | 39 | 2.0 | 12.0 | 0.00 | 1.71 | 1.71 | 86 | 1013.8 |
| 20260906000512 | 76 | 344 | 3.0 | 12.0 | 0.00 | 1.71 | 1.71 | 86 | 1013.7 |
| 20260906000027 | 76 | 360 | 2.0 | 8.0 | 0.00 | 1.71 | 1.71 | 86 | 1013.8 |
| 20260905235509 | 76 | 344 | 2.0 | 7.0 | 0.00 | 1.71 | 1.71 | 86 | 1013.9 |
| 20260905235014 | 77 | 315 | 1.0 | 7.0 | 0.00 | 1.71 | 1.71 | 85 | 1014.0 |
| 20260905234532 | 77 | 333 | 1.0 | 9.0 | 0.00 | 1.71 | 1.71 | 85 | 1013.9 |
| 20260905234013 | 77 | 19 | 3.0 | 9.0 | 0.00 | 1.71 | 1.71 | 85 | 1013.9 |
| 20260905233512 | 77 | 17 | 3.0 | 7.0 | 0.00 | 1.71 | 1.71 | 85 | 1013.9 |
| 20260905233028 | 78 | 336 | 0.0 | 3.0 | 0.00 | 1.71 | 1.71 | 84 | 1013.8 |
| 20260905232517 | 78 | 5 | 0.0 | 2.0 | 0.00 | 1.71 | 1.71 | 84 | 1013.9 |
| 20260905232016 | 78 | 324 | 0.0 | 2.0 | 0.00 | 1.71 | 1.71 | 84 | 1013.9 |
| 20260905231511 | 78 | 297 | 0.0 | 2.0 | 0.00 | 1.71 | 1.71 | 83 | 1013.7 |
| 20260905231008 | 78 | 297 | 0.0 | 2.0 | 0.00 | 1.71 | 1.71 | 82 | 1013.4 |
| 20260905230510 | 78 | 297 | 0.0 | 2.0 | 0.00 | 1.71 | 1.71 | 81 | 1013.3 |
| 20260905230023 | 78 | 312 | 0.0 | 2.0 | 0.00 | 1.71 | 1.71 | 82 | 1013.2 |
| 20260905225510 | 78 | 312 | 0.0 | 1.0 | 0.00 | 1.71 | 1.71 | 81 | 1013.2 |
| 20260905225012 | 78 | 317 | 0.0 | 3.0 | 0.00 | 1.71 | 1.71 | 81 | 1013.1 |
| 20260905224505 | 79 | 337 | 1.0 | 3.0 | 0.00 | 1.71 | 1.71 | 81 | 1013.1 |
| 20260905224008 | 79 | 311 | 2.0 | 3.0 | 0.00 | 1.71 | 1.71 | 80 | 1013.1 |
| 20260905223508 | 79 | 15 | 0.0 | 2.0 | 0.00 | 1.71 | 1.71 | 81 | 1013.0 |
| 20260905223005 | 79 | 336 | 0.0 | 2.0 | 0.00 | 1.71 | 1.71 | 81 | 1012.8 |
| 20260905222505 | 79 | 24 | 0.0 | 2.0 | 0.00 | 1.71 | 1.71 | 82 | 1012.8 |
| 20260905222006 | 79 | 330 | 0.0 | 3.0 | 0.00 | 1.71 | 1.71 | 82 | 1012.8 |
| 20260905221512 | 79 | 330 | 0.0 | 3.0 | 0.00 | 1.71 | 1.71 | 81 | 1012.9 |
| 20260905221007 | 79 | 33 | 0.0 | 4.0 | 0.00 | 1.71 | 1.71 | 82 | 1012.9 |
| 20260905220508 | 79 | 330 | 1.0 | 4.0 | 0.00 | 1.71 | 1.71 | 82 | 1012.8 |
| 20260905220019 | 80 | 30 | 1.0 | 2.0 | 0.00 | 1.71 | 1.71 | 83 | 1012.9 |
| 20260905215512 | 79 | 346 | 0.0 | 4.0 | 0.00 | 1.71 | 1.71 | 81 | 1013.0 |
| 20260905215010 | 79 | 282 | 1.0 | 4.0 | 0.00 | 1.71 | 1.71 | 81 | 1013.0 |
| 20260905214504 | 80 | 297 | 1.0 | 4.0 | 0.00 | 1.71 | 1.71 | 79 | 1012.9 |
| 20260905214001 | 80 | 277 | 1.0 | 6.0 | 0.00 | 1.71 | 1.71 | 80 | 1013.0 |
| 20260905213501 | 80 | 287 | 0.0 | 6.0 | 0.00 | 1.71 | 1.71 | 80 | 1013.0 |
| 20260905213004 | 80 | 24 | 0.0 | 2.0 | 0.00 | 1.71 | 1.71 | 81 | 1013.0 |
| 20260905212506 | 80 | 273 | 0.0 | 3.0 | 0.00 | 1.71 | 1.71 | 81 | 1013.0 |
| 20260905212004 | 80 | 303 | 1.0 | 3.0 | 0.00 | 1.71 | 1.71 | 79 | 1013.1 |
| 20260905211507 | 80 | 347 | 0.0 | 2.0 | 0.00 | 1.71 | 1.71 | 79 | 1013.1 |
| 20260905211008 | 80 | 347 | 0.0 | 3.0 | 0.00 | 1.71 | 1.71 | 78 | 1013.0 |
| 20260905210508 | 80 | 291 | 1.0 | 3.0 | 0.00 | 1.71 | 1.71 | 80 | 1013.1 |
| 20260905210015 | 81 | 321 | 2.0 | 3.0 | 0.00 | 1.71 | 1.71 | 79 | 1013.1 |
| 20260905205511 | 81 | 349 | 0.0 | 3.0 | 0.00 | 1.71 | 1.71 | 79 | 1013.1 |
| 20260905205012 | 81 | 340 | 0.0 | 3.0 | 0.00 | 1.71 | 1.71 | 78 | 1013.1 |
| 20260905204526 | 81 | 294 | 1.0 | 3.0 | 0.00 | 1.71 | 1.71 | 78 | 1013.2 |
| 20260905204012 | 81 | 40 | 0.0 | 3.0 | 0.00 | 1.71 | 1.71 | 78 | 1013.2 |
| 20260905203501 | 81 | 281 | 1.0 | 2.0 | 0.00 | 1.71 | 1.71 | 78 | 1013.2 |
| 20260905203007 | 81 | 336 | 1.0 | 4.0 | 0.00 | 1.71 | 1.71 | 79 | 1013.3 |
| 20260905202508 | 81 | 273 | 1.0 | 6.0 | 0.00 | 1.71 | 1.71 | 77 | 1013.3 |
| 20260905202004 | 81 | 360 | 2.0 | 6.0 | 0.00 | 1.71 | 1.71 | 78 | 1013.2 |
| 20260905201512 | 81 | 207 | 1.0 | 5.0 | 0.00 | 1.71 | 1.71 | 77 | 1013.4 |
| 20260905201006 | 81 | 20 | 2.0 | 5.0 | 0.00 | 1.71 | 1.71 | 76 | 1013.5 |
| 20260905200506 | 81 | 321 | 1.0 | 4.0 | 0.00 | 1.71 | 1.71 | 76 | 1013.4 |
| 20260905200014 | 82 | 277 | 1.0 | 4.0 | 0.00 | 1.71 | 1.71 | 77 | 1013.5 |
| 20260905195507 | 82 | 18 | 1.0 | 4.0 | 0.00 | 1.71 | 1.71 | 76 | 1013.5 |
| 20260905195010 | 82 | 360 | 1.0 | 3.0 | 0.00 | 1.71 | 1.71 | 77 | 1013.7 |
| 20260905194523 | 81 | 9 | 1.0 | 3.0 | 0.00 | 1.71 | 1.71 | 78 | 1013.6 |
| 20260905194010 | 81 | 306 | 1.0 | 2.0 | 0.00 | 1.71 | 1.71 | 77 | 1013.8 |
| 20260905193512 | 81 | 15 | 1.0 | 5.0 | 0.00 | 1.71 | 1.71 | 78 | 1013.8 |
| 20260905193029 | 81 | 305 | 1.0 | 6.0 | 0.00 | 1.71 | 1.71 | 78 | 1013.8 |
| 20260905192503 | 81 | 271 | 2.0 | 6.0 | 0.00 | 1.71 | 1.71 | 75 | 1013.9 |
| 20260905192006 | 82 | 302 | 0.0 | 2.0 | 0.00 | 1.71 | 1.71 | 78 | 1013.8 |
| 20260905191506 | 81 | 334 | 1.0 | 5.0 | 0.00 | 1.71 | 1.71 | 77 | 1013.9 |
| 20260905191004 | 81 | 333 | 1.0 | 5.0 | 0.00 | 1.71 | 1.71 | 76 | 1013.9 |
| 20260905190508 | 82 | 240 | 1.0 | 7.0 | 0.00 | 1.71 | 1.71 | 77 | 1014.1 |
| 20260905190025 | 81 | 334 | 2.0 | 7.0 | 0.00 | 1.71 | 1.71 | 78 | 1014.1 |
| 20260905185507 | 81 | 255 | 2.0 | 6.0 | 0.00 | 1.71 | 1.71 | 77 | 1014.1 |
| 20260905185012 | 81 | 321 | 2.0 | 6.0 | 0.00 | 1.71 | 1.71 | 79 | 1014.2 |
| 20260905184518 | 81 | 9 | 2.0 | 6.0 | 0.00 | 1.71 | 1.71 | 79 | 1014.3 |
| 20260905184012 | 81 | 313 | 1.0 | 4.0 | 0.00 | 1.71 | 1.71 | 79 | 1014.4 |
| 20260905183511 | 80 | 253 | 1.0 | 4.0 | 0.00 | 1.71 | 1.71 | 80 | 1014.4 |
| 20260905183026 | 80 | 234 | 1.0 | 6.0 | 0.00 | 1.71 | 1.71 | 80 | 1014.4 |
| 20260905182513 | 79 | 19 | 1.0 | 6.0 | 0.00 | 1.71 | 1.71 | 80 | 1014.4 |
| 20260905182012 | 79 | 244 | 1.0 | 4.0 | 0.00 | 1.71 | 1.71 | 81 | 1014.5 |
| 20260905181534 | 80 | 311 | 1.0 | 4.0 | 0.00 | 1.71 | 1.71 | 79 | 1014.4 |
| 20260905181006 | 80 | 281 | 1.0 | 9.0 | 0.00 | 1.71 | 1.71 | 79 | 1014.4 |
| 20260905180505 | 80 | 38 | 2.0 | 9.0 | 0.00 | 1.71 | 1.71 | 79 | 1014.3 |
| 20260905180011 | 80 | 15 | 0.0 | 5.0 | 0.00 | 1.71 | 1.71 | 79 | 1014.3 |
| 20260905175507 | 80 | 30 | 2.0 | 5.0 | 0.00 | 1.71 | 1.71 | 78 | 1014.3 |
| 20260905175006 | 80 | 72 | 2.0 | 5.0 | 0.00 | 1.71 | 1.71 | 79 | 1014.2 |
| 20260905174516 | 80 | 352 | 2.0 | 5.0 | 0.00 | 1.71 | 1.71 | 79 | 1014.3 |
| 20260905174010 | 80 | 360 | 1.0 | 7.0 | 0.00 | 1.71 | 1.71 | 79 | 1014.3 |
| 20260905173510 | 80 | 294 | 2.0 | 7.0 | 0.00 | 1.71 | 1.71 | 79 | 1014.3 |
| 20260905173023 | 80 | 27 | 1.0 | 7.0 | 0.00 | 1.71 | 1.71 | 80 | 1014.3 |
| 20260905172511 | 79 | 342 | 3.0 | 8.0 | 0.00 | 1.71 | 1.71 | 77 | 1014.4 |
| 20260905172013 | 80 | 309 | 2.0 | 8.0 | 0.00 | 1.71 | 1.71 | 79 | 1014.4 |
| 20260905171542 | 80 | 275 | 2.0 | 7.0 | 0.00 | 1.71 | 1.71 | 78 | 1014.5 |
| 20260905171012 | 80 | 244 | 2.0 | 8.0 | 0.00 | 1.71 | 1.71 | 79 | 1014.5 |
| 20260905170516 | 80 | 16 | 2.0 | 8.0 | 0.00 | 1.71 | 1.71 | 79 | 1014.6 |
| 20260905170011 | 80 | 284 | 3.0 | 7.0 | 0.00 | 1.72 | 1.71 | 77 | 1014.7 |
| 20260905165505 | 80 | 246 | 3.0 | 6.0 | 0.00 | 1.72 | 1.71 | 78 | 1014.6 |
| 20260905165006 | 80 | 291 | 2.0 | 7.0 | 0.00 | 1.73 | 1.71 | 79 | 1014.6 |
| 20260905164514 | 80 | 266 | 2.0 | 8.0 | 0.00 | 1.73 | 1.71 | 79 | 1014.5 |
| 20260905164008 | 80 | 19 | 3.0 | 8.0 | 0.00 | 1.73 | 1.71 | 77 | 1014.4 |
| 20260905163507 | 80 | 335 | 2.0 | 8.0 | 0.00 | 1.74 | 1.71 | 79 | 1014.3 |
| 20260905163020 | 79 | 295 | 2.0 | 7.0 | 0.00 | 1.75 | 1.71 | 79 | 1014.3 |
| 20260905162510 | 79 | 251 | 1.0 | 5.0 | 0.00 | 1.96 | 1.71 | 79 | 1014.5 |
| 20260905162013 | 79 | 345 | 2.0 | 6.0 | 0.00 | 2.09 | 1.71 | 77 | 1014.5 |
| 20260905161526 | 79 | 306 | 1.0 | 6.0 | 0.00 | 2.09 | 1.71 | 82 | 1014.5 |
| 20260905161014 | 79 | 329 | 1.0 | 4.0 | 0.00 | 2.09 | 1.71 | 80 | 1014.4 |
| 20260905160517 | 78 | 297 | 0.0 | 7.0 | 0.00 | 2.09 | 1.71 | 81 | 1014.5 |
| 20260905160048 | 78 | 272 | 1.0 | 7.0 | 0.00 | 2.09 | 1.71 | 81 | 1014.4 |
| 20260905155520 | 78 | 284 | 1.0 | 6.0 | 0.00 | 2.09 | 1.71 | 78 | 1014.4 |
| 20260905155005 | 78 | 350 | 1.0 | 3.0 | 0.00 | 2.09 | 1.71 | 79 | 1014.4 |
| 20260905154517 | 78 | 269 | 1.0 | 3.0 | 0.00 | 2.09 | 1.71 | 79 | 1014.3 |
| 20260905154006 | 78 | 279 | 1.0 | 6.0 | 0.00 | 2.09 | 1.71 | 80 | 1014.3 |
| 20260905153506 | 79 | 276 | 1.0 | 6.0 | 0.00 | 2.09 | 1.71 | 77 | 1014.2 |
| 20260905153025 | 79 | 260 | 0.0 | 6.0 | 0.00 | 2.09 | 1.71 | 79 | 1014.1 |
| 20260905152511 | 79 | 271 | 2.0 | 5.0 | 0.00 | 2.09 | 1.71 | 80 | 1014.1 |
| 20260905152018 | 78 | 290 | 1.0 | 6.0 | 0.00 | 2.09 | 1.71 | 81 | 1014.2 |
| 20260905151528 | 78 | 235 | 1.0 | 6.0 | 0.00 | 2.09 | 1.71 | 82 | 1014.2 |
| 20260905151016 | 77 | 59 | 1.0 | 3.0 | 0.00 | 2.09 | 1.71 | 84 | 1014.1 |
| 20260905150513 | 76 | 245 | 1.0 | 3.0 | 0.00 | 2.09 | 1.71 | 1014.1 | |
| 20260905150028 | 75 | 352 | 0.0 | 2.0 | 0.00 | 2.09 | 1.71 | 1014.1 | |
| 20260905145519 | 75 | 284 | 1.0 | 2.0 | 0.00 | 2.09 | 1.71 | 88 | 1014.1 |
| 20260905145015 | 74 | 122 | 0.0 | 2.0 | 0.00 | 2.09 | 1.71 | 88 | 1014.0 |
| 20260905144531 | 73 | 173 | 0.0 | 2.0 | 0.00 | 2.09 | 1.71 | 88 | 1014.0 |
| 20260905144003 | 73 | 127 | 0.0 | 2.0 | 0.00 | 2.09 | 1.71 | 89 | 1013.9 |
| 20260905143506 | 72 | 251 | 1.0 | 2.0 | 0.00 | 2.09 | 1.71 | 88 | 1013.9 |
| 20260905143017 | 72 | 284 | 0.0 | 2.0 | 0.00 | 2.09 | 1.71 | 89 | 1013.8 |
| 20260905142508 | 71 | 284 | 0.0 | 2.0 | 0.00 | 2.09 | 1.71 | 90 | 1013.9 |
| 20260905142009 | 71 | 284 | 0.0 | 2.0 | 0.00 | 2.11 | 1.71 | 91 | 1013.8 |
| 20260905141522 | 70 | 203 | 0.0 | 2.0 | 0.00 | 2.11 | 1.71 | 93 | 1013.7 |
| 20260905141011 | 70 | 218 | 0.0 | 2.0 | 0.00 | 2.11 | 1.71 | 93 | 1013.6 |
| 20260905140514 | 69 | 200 | 0.0 | 2.0 | 0.00 | 2.13 | 1.71 | 94 | 1013.5 |
| 20260905140028 | 69 | 200 | 0.0 | 2.0 | 0.00 | 2.14 | 1.71 | 94 | 1013.6 |
| 20260905135516 | 69 | 207 | 0.0 | 2.0 | 0.00 | 2.14 | 1.71 | 95 | 1013.6 |
| 20260905135014 | 68 | 139 | 1.0 | 4.0 | 0.00 | 2.14 | 1.71 | 95 | 1013.7 |
| 20260905134508 | 68 | 144 | 1.0 | 4.0 | 0.00 | 2.14 | 1.71 | 96 | 1013.8 |
| 20260905134003 | 68 | 152 | 1.0 | 3.0 | 0.00 | 2.14 | 1.71 | 96 | 1014.1 |
| 20260905133506 | 68 | 138 | 1.0 | 3.0 | 0.00 | 2.14 | 1.71 | 96 | 1014.1 |
| 20260905133020 | 67 | 232 | 0.0 | 3.0 | 0.00 | 2.14 | 1.71 | 96 | 1014.2 |
| 20260905132506 | 67 | 215 | 1.0 | 3.0 | 0.00 | 2.14 | 1.71 | 96 | 1014.3 |
| 20260905132006 | 67 | 190 | 1.0 | 3.0 | 0.00 | 2.14 | 1.71 | 96 | 1014.3 |
| 20260905131519 | 67 | 136 | 1.0 | 4.0 | 0.00 | 2.14 | 1.71 | 96 | 1014.2 |
| 20260905131001 | 67 | 164 | 1.0 | 4.0 | 0.00 | 2.14 | 1.71 | 96 | 1014.1 |
| 20260905130503 | 67 | 165 | 1.0 | 2.0 | 0.00 | 2.14 | 1.71 | 96 | 1014.3 |
| 20260905130004 | 67 | 191 | 0.0 | 3.0 | 0.00 | 2.14 | 1.71 | 96 | 1014.3 |
| 20260905125504 | 67 | 204 | 0.0 | 3.0 | 0.00 | 2.14 | 1.71 | 97 | 1014.1 |
| 20260905125005 | 67 | 206 | 1.0 | 3.0 | 0.01 | 2.14 | 1.71 | 96 | 1014.3 |
| 20260905124508 | 67 | 190 | 1.0 | 3.0 | 0.01 | 2.14 | 1.71 | 97 | 1014.3 |
| 20260905124003 | 67 | 190 | 0.0 | 3.0 | 0.01 | 2.14 | 1.71 | 97 | 1014.3 |
| 20260905123504 | 67 | 153 | 0.0 | 2.0 | 0.01 | 2.14 | 1.71 | 96 | 1014.2 |
| 20260905123012 | 67 | 153 | 0.0 | 3.0 | 0.02 | 2.14 | 1.71 | 96 | 1014.3 |
| 20260905122504 | 67 | 153 | 0.0 | 3.0 | 0.03 | 2.14 | 1.71 | 96 | 1014.6 |
| 20260905122008 | 67 | 146 | 0.0 | 2.0 | 0.04 | 2.14 | 1.71 | 96 | 1014.6 |
| 20260905121519 | 67 | 152 | 0.0 | 2.0 | 0.06 | 2.14 | 1.71 | 96 | 1014.7 |
| 20260905121008 | 67 | 135 | 1.0 | 2.0 | 0.07 | 2.14 | 1.71 | 96 | 1014.6 |
| 20260905120512 | 67 | 151 | 0.0 | 2.0 | 0.08 | 2.14 | 1.71 | 96 | 1014.6 |
| 20260905120012 | 67 | 166 | 0.0 | 3.0 | 0.09 | 2.14 | 1.71 | 96 | 1014.7 |
| 20260905115503 | 67 | 166 | 0.0 | 3.0 | 0.11 | 2.14 | 1.71 | 96 | 1014.8 |
| 20260905115001 | 67 | 223 | 1.0 | 3.0 | 0.11 | 2.13 | 1.70 | 96 | 1015.0 |
| 20260905114505 | 67 | 266 | 1.0 | 3.0 | 0.13 | 2.13 | 1.70 | 96 | 1014.8 |
| 20260905114001 | 67 | 198 | 0.0 | 5.0 | 0.14 | 2.13 | 1.70 | 96 | 1014.5 |